QPF
0.00 0.00 0.00 0.00 0.00 0.00 0.00 0.00 0.00 0.00 0.00 0.00 0.00 0.00 0.00 0.00 0.00 0.00 0.00 0.00 0.00 0.00 0.00 0.00 0.00 0.00 0.00 0.00 0.00 0.00 0.01 0.00 0.00 0.00 0.00 0.00 0.01 0.00 0.05 0.02 0.00 0.00 0.00 0.00 0.00
0.00 0.00 0.00 0.00 0.00 0.00 0.00 0.00 0.00 0.00 0.00 0.00 0.00 0.00 0.00 0.00 0.00 0.00 0.00 0.00 0.00 0.00 0.00 0.00 0.00 0.00 0.00 0.00 0.00 0.00 0.00 0.00 0.00 0.00 0.00 0.00 0.00 0.00 0.01 0.00 0.00 0.00 0.00 0.00 0.00
0.00 0.00 0.00 0.00 0.00 0.00 0.00 0.00 0.00 0.00 0.00 0.00 0.00 0.00 0.00 0.00 0.00 0.00 0.00 0.00 0.00 0.00 0.00 0.00 0.00 0.00 0.00 0.00 0.00 0.00 0.00 0.00 0.00 0.00 0.00 0.00 0.00 0.00 0.00 0.00 0.00 0.00 0.00 0.00 0.00
0.00 0.00 0.00 0.00 0.00 0.00 0.00 0.00 0.00 0.00 0.00 0.00 0.00 0.00 0.00 0.00 0.00 0.00 0.00 0.00 0.00 0.00 0.00 0.00 0.00 0.00 0.00 0.00 0.00 0.00 0.00 0.00 0.00 0.00 0.00 0.00 0.00 0.00 0.00 0.00 0.00 0.00 0.00 0.00 0.00
0.00 0.00 0.00 0.00 0.00 0.00 0.00 0.00 0.00 0.00 0.00 0.00 0.00 0.00 0.00 0.00 0.00 0.00 0.00 0.00 0.00 0.00 0.00 0.00 0.00 0.00 0.00 0.00 0.00 0.00 0.00 0.00 0.00 0.00 0.00 0.00 0.00 0.00 0.00 0.00 0.01 0.00 0.00 0.00 0.00
0.00 0.00 0.00 0.00 0.00 0.00 0.00 0.00 0.00 0.00 0.00 0.00 0.00 0.00 0.00 0.00 0.00 0.00 0.00 0.00 0.00 0.00 0.00 0.00 0.00 0.00 0.00 0.00 0.00 0.00 0.00 0.00 0.00 0.00 0.00 0.00 0.00 0.00 0.00 0.00 0.01 0.00 0.00 0.00 0.00
0.00 0.00 0.00 0.00 0.00 0.00 0.00 0.00 0.00 0.00 0.00 0.00 0.00 0.00 0.00 0.00 0.00 0.00 0.00 0.00 0.00 0.00 0.00 0.00 0.00 0.00 0.00 0.00 0.00 0.00 0.00 0.00 0.00 0.00 0.00 0.00 0.00 0.00 0.00 0.00 0.00 0.00 0.00 0.00 0.00
0.00 0.00 0.00 0.00 0.00 0.00 0.00 0.00 0.00 0.00 0.00 0.00 0.00 0.00 0.00 0.00 0.00 0.00 0.00 0.00 0.00 0.00 0.00 0.00 0.00 0.00 0.00 0.00 0.00 0.00 0.00 0.00 0.00 0.00 0.00 0.00 0.00 0.00 0.00 0.00 0.00 0.00 0.00 0.00 0.00
0.00 0.00 0.00 0.00 0.00 0.00 0.00 0.00 0.00 0.00 0.00 0.00 0.00 0.00 0.00 0.00 0.00 0.00 0.00 0.00 0.00 0.00 0.00 0.00 0.00 0.00 0.00 0.00 0.00 0.00 0.00 0.00 0.00 0.00 0.00 0.00 0.00 0.00 0.00 0.00 0.00 0.00 0.00 0.00 0.00
0.00 0.00 0.00 0.00 0.00 0.00 0.00 0.00 0.00 0.00 0.00 0.00 0.00 0.00 0.00 0.00 0.00 0.00 0.00 0.00 0.00 0.00 0.00 0.00 0.00 0.00 0.00 0.00 0.00 0.00 0.00 0.00 0.00 0.00 0.00 0.00 0.00 0.00 0.00 0.00 0.00 0.00 0.00 0.00 0.00
0.00 0.00 0.00 0.00 0.00 0.00 0.00 0.00 0.00 0.00 0.00 0.00 0.00 0.00 0.00 0.00 0.00 0.00 0.00 0.00 0.00 0.00 0.00 0.00 0.00 0.00 0.00 0.00 0.00 0.00 0.00 0.00 0.00 0.00 0.00 0.00 0.00 0.00 0.00 0.00 0.00 0.00 0.00 0.00 0.00
0.00 0.00 0.00 0.00 0.00 0.00 0.00 0.00 0.00 0.00 0.00 0.00 0.00 0.00 0.00 0.00 0.00 0.00 0.00 0.00 0.00 0.00 0.00 0.00 0.00 0.00 0.00 0.00 0.00 0.00 0.00 0.00 0.00 0.00 0.00 0.00 0.00 0.00 0.00 0.00 0.00 0.00 0.00 0.00 0.00
0.00 0.00 0.00 0.00 0.00 0.00 0.00 0.00 0.00 0.00 0.00 0.00 0.00 0.00 0.00 0.00 0.00 0.00 0.00 0.00 0.00 0.00 0.00 0.00 0.00 0.00 0.00 0.00 0.00 0.00 0.00 0.00 0.00 0.00 0.00 0.00 0.00 0.00 0.00 0.00 0.00 0.00 0.00 0.00 0.00
0.00 0.00 0.00 0.00 0.00 0.00 0.00 0.00 0.00 0.00 0.00 0.00 0.00 0.00 0.00 0.00 0.00 0.00 0.00 0.00 0.00 0.00 0.00 0.00 0.00 0.00 0.00 0.00 0.00 0.00 0.00 0.00 0.00 0.00 0.00 0.00 0.00 0.00 0.00 0.00 0.00 0.00 0.00 0.00 0.00
0.00 0.00 0.00 0.00 0.00 0.00 0.00 0.00 0.00 0.00 0.00 0.00 0.00 0.00 0.00 0.00 0.00 0.00 0.00 0.00 0.00 0.00 0.00 0.00 0.00 0.00 0.00 0.00 0.00 0.00 0.00 0.00 0.00 0.00 0.00 0.00 0.00 0.00 0.00 0.00 0.00 0.00 0.00 0.00 0.00
0.00 0.00 0.00 0.00 0.00 0.00 0.00 0.00 0.00 0.00 0.00 0.00 0.00 0.00 0.00 0.00 0.00 0.00 0.00 0.00 0.00 0.00 0.00 0.00 0.00 0.00 0.00 0.00 0.00 0.00 0.00 0.00 0.00 0.00 0.00 0.00 0.00 0.00 0.00 0.00 0.00 0.00 0.00 0.00 0.00
0.00 0.00 0.00 0.00 0.00 0.00 0.00 0.00 0.00 0.00 0.00 0.00 0.00 0.00 0.00 0.00 0.00 0.00 0.00 0.00 0.00 0.00 0.00 0.00 0.00 0.00 0.00 0.00 0.00 0.00 0.00 0.00 0.00 0.00 0.00 0.00 0.00 0.00 0.00 0.00 0.00 0.00 0.00 0.00 0.00
0.00 0.00 0.00 0.00 0.00 0.00 0.00 0.00 0.00 0.00 0.00 0.00 0.00 0.00 0.00 0.00 0.00 0.00 0.00 0.00 0.00 0.00 0.00 0.00 0.00 0.00 0.00 0.00 0.00 0.00 0.00 0.00 0.00 0.00 0.00 0.00 0.00 0.00 0.00 0.00 0.00 0.00 0.00 0.00 0.00
0.00 0.00 0.00 0.00 0.00 0.00 0.00 0.00 0.00 0.00 0.00 0.00 0.00 0.00 0.00 0.00 0.00 0.00 0.00 0.00 0.00 0.00 0.00 0.00 0.00 0.00 0.00 0.00 0.00 0.00 0.00 0.00 0.00 0.00 0.00 0.00 0.00 0.00 0.00 0.00 0.00 0.00 0.00 0.00 0.00
0.00 0.00 0.00 0.00 0.00 0.00 0.00 0.00 0.00 0.00 0.00 0.00 0.00 0.00 0.00 0.00 0.00 0.00 0.00 0.00 0.00 0.00 0.00 0.00 0.00 0.00 0.00 0.00 0.00 0.00 0.00 0.00 0.00 0.00 0.00 0.00 0.00 0.00 0.00 0.00 0.00 0.00 0.00 0.00 0.00
0.00 0.00 0.00 0.00 0.00 0.00 0.00 0.00 0.00 0.00 0.00 0.00 0.00 0.00 0.00 0.00 0.00 0.00 0.00 0.00 0.00 0.00 0.00 0.00 0.00 0.00 0.00 0.00 0.00 0.00 0.00 0.00 0.00 0.00 0.00 0.00 0.00 0.00 0.00 0.00 0.00 0.00 0.00 0.00 0.00
0.00 0.00 0.00 0.00 0.00 0.00 0.00 0.00 0.00 0.00 0.00 0.00 0.00 0.00 0.00 0.00 0.00 0.00 0.00 0.00 0.00 0.00 0.00 0.00 0.00 0.00 0.00 0.00 0.00 0.00 0.00 0.00 0.00 0.00 0.00 0.00 0.00 0.00 0.00 0.00 0.00 0.00 0.00 0.00 0.00
0.00 0.00 0.00 0.00 0.00 0.00 0.00 0.00 0.00 0.00 0.00 0.00 0.00 0.00 0.00 0.00 0.00 0.00 0.00 0.00 0.00 0.00 0.00 0.00 0.00 0.00 0.00 0.00 0.00 0.00 0.00 0.00 0.00 0.00 0.00 0.00 0.00 0.00 0.00 0.00 0.00 0.00 0.00 0.00 0.00
0.00 0.00 0.00 0.00 0.00 0.00 0.00 0.00 0.00 0.00 0.00 0.00 0.00 0.00 0.00 0.00 0.00 0.00 0.00 0.00 0.00 0.00 0.01 0.00 0.00 0.00 0.00 0.00 0.00 0.00 0.00 0.00 0.00 0.00 0.00 0.00 0.00 0.00 0.00 0.00 0.00 0.00 0.00 0.00 0.00
0.00 0.00 0.00 0.00 0.00 0.00 0.00 0.00 0.00 0.00 0.00 0.00 0.01 0.00 0.00 0.00 0.00 0.00 0.00 0.00 0.00 0.01 0.01 0.00 0.00 0.00 0.00 0.00 0.00 0.00 0.00 0.00 0.00 0.00 0.00 0.00 0.00 0.00 0.00 0.00 0.00 0.00 0.00 0.00 0.00
0.00 0.00 0.00 0.00 0.00 0.00 0.00 0.00 0.00 0.01 0.01 0.00 0.01 0.00 0.00 0.00 0.00 0.00 0.00 0.00 0.00 0.01 0.00 0.00 0.00 0.00 0.00 0.00 0.00 0.00 0.00 0.00 0.00 0.00 0.00 0.00 0.00 0.00 0.00 0.00 0.00 0.00 0.00 0.00 0.00
0.00 0.00 0.00 0.00 0.00 0.00 0.00 0.00 0.01 0.01 0.00 0.00 0.01 0.00 0.00 0.00 0.00 0.00 0.00 0.00 0.00 0.00 0.00 0.00 0.00 0.00 0.00 0.00 0.00 0.00 0.00 0.00 0.00 0.00 0.00 0.00 0.00 0.00 0.00 0.00 0.00 0.00 0.00 0.00 0.00
MSLP
1018.81 1018.30 1017.78 1017.22 1016.73 1016.21 1015.59 1015.08 1014.69 1014.39 1013.99 1013.61 1013.37 1013.42 1013.34 1013.21 1013.15 1013.01 1011.86 1009.47 1009.66 1009.61 1009.87 1010.06 1010.39 1010.60 1010.79 1010.78 1010.64 1010.50 1009.97 1008.56 1007.93 1007.39 1007.41 1007.86 1008.20 1009.01 1009.62 1009.97 1010.37 1011.05 1011.29 1011.96 1013.59
1018.72 1018.22 1017.71 1017.09 1016.56 1016.03 1015.55 1014.99 1014.38 1013.91 1013.64 1013.35 1013.12 1013.04 1013.01 1012.90 1012.76 1011.69 1009.37 1009.31 1009.65 1009.49 1009.39 1009.45 1009.81 1010.29 1010.58 1010.55 1010.27 1009.88 1009.44 1008.03 1007.63 1007.12 1007.00 1007.48 1007.69 1008.55 1009.23 1009.89 1010.40 1011.04 1011.64 1012.68 1013.54
1018.60 1018.06 1017.50 1016.91 1016.31 1015.75 1015.23 1014.79 1014.17 1013.63 1013.12 1012.97 1012.81 1012.79 1012.72 1012.69 1011.97 1008.99 1008.49 1008.19 1009.09 1009.38 1009.24 1009.58 1009.79 1010.03 1010.11 1010.32 1009.94 1009.41 1008.76 1007.96 1007.36 1007.12 1006.98 1007.13 1007.52 1008.15 1008.63 1009.12 1009.57 1010.41 1011.71 1012.80 1013.31
1018.52 1017.91 1017.24 1016.58 1015.91 1015.41 1014.85 1014.46 1013.91 1013.41 1012.92 1012.60 1012.60 1012.61 1012.57 1012.43 1010.80 1008.63 1007.79 1007.18 1008.30 1008.97 1009.25 1009.43 1009.74 1009.70 1009.77 1009.67 1009.53 1009.31 1008.69 1007.94 1007.44 1007.06 1006.91 1006.99 1007.18 1007.67 1008.14 1008.02 1008.74 1010.09 1011.10 1012.23 1013.21
1018.44 1017.81 1017.11 1016.33 1015.62 1014.85 1014.40 1014.03 1013.49 1012.98 1012.67 1012.38 1012.47 1012.59 1012.56 1011.48 1009.59 1008.82 1008.07 1007.93 1008.27 1008.59 1008.55 1008.78 1009.15 1009.26 1009.13 1009.21 1009.27 1008.97 1008.52 1007.73 1007.27 1006.95 1006.66 1006.73 1006.99 1007.22 1007.77 1008.33 1009.20 1010.41 1011.44 1012.13 1013.19
1018.36 1017.65 1016.90 1016.17 1015.38 1014.53 1013.94 1013.45 1013.09 1012.56 1012.20 1012.05 1012.22 1012.47 1012.06 1010.40 1009.04 1009.01 1008.65 1008.61 1008.30 1008.36 1008.47 1008.65 1008.66 1008.91 1008.97 1008.95 1008.75 1008.15 1008.12 1007.61 1007.08 1006.68 1006.48 1006.52 1006.61 1007.23 1007.85 1008.74 1009.81 1010.68 1011.37 1012.15 1012.82
1018.37 1017.45 1016.60 1015.83 1015.09 1014.24 1013.65 1012.99 1012.50 1012.10 1011.79 1011.71 1012.14 1012.19 1011.43 1009.84 1009.06 1009.02 1008.89 1008.70 1008.82 1008.62 1008.39 1008.67 1008.65 1008.62 1008.67 1008.58 1008.49 1008.23 1007.92 1007.55 1006.81 1006.30 1006.10 1005.99 1006.49 1006.76 1007.97 1008.87 1009.80 1010.72 1011.55 1012.26 1012.85
1018.35 1017.50 1016.45 1015.46 1014.64 1013.96 1013.29 1012.61 1012.15 1011.76 1011.92 1012.01 1012.14 1011.89 1010.17 1009.13 1009.07 1008.84 1008.76 1008.77 1008.98 1009.03 1008.78 1008.91 1008.80 1008.77 1008.69 1008.47 1008.15 1007.92 1007.85 1006.81 1005.75 1005.75 1005.47 1005.72 1005.47 1006.81 1008.03 1008.79 1009.76 1010.67 1011.44 1012.02 1012.54
1018.19 1017.37 1016.34 1015.42 1014.43 1013.73 1012.94 1012.29 1011.99 1011.90 1012.08 1012.20 1012.05 1011.41 1009.60 1008.65 1008.69 1008.56 1008.51 1008.37 1008.81 1009.27 1009.12 1008.93 1008.89 1008.84 1008.77 1008.26 1007.76 1007.62 1006.47 1006.07 1005.41 1005.21 1004.77 1005.23 1005.33 1006.62 1007.98 1008.70 1009.55 1010.43 1011.10 1011.72 1012.25
1018.19 1017.28 1016.25 1015.42 1014.42 1013.65 1012.99 1012.45 1012.22 1012.07 1012.17 1012.10 1011.81 1011.25 1009.33 1009.22 1008.95 1008.51 1008.33 1008.39 1008.56 1009.09 1009.24 1008.91 1008.81 1008.57 1008.40 1007.82 1006.32 1006.46 1006.18 1005.81 1004.97 1004.72 1004.76 1004.82 1005.15 1006.65 1007.68 1008.45 1009.11 1009.91 1010.75 1011.31 1011.73
1017.85 1017.03 1016.00 1015.12 1014.25 1013.42 1013.05 1012.62 1012.51 1012.14 1011.68 1011.85 1011.60 1010.87 1009.81 1009.32 1009.03 1008.29 1008.31 1008.26 1008.46 1008.90 1008.54 1008.71 1008.26 1006.87 1006.70 1007.48 1007.36 1006.99 1006.34 1005.49 1005.01 1004.63 1004.59 1004.18 1004.76 1005.99 1007.23 1008.17 1008.81 1009.49 1010.18 1010.61 1011.05
1017.75 1017.01 1015.93 1014.96 1013.99 1013.35 1013.21 1013.01 1013.93 1014.22 1012.76 1011.58 1011.24 1010.62 1009.97 1009.70 1008.99 1008.44 1008.11 1008.17 1008.20 1008.17 1008.67 1008.85 1007.15 1006.99 1007.76 1008.05 1007.84 1007.35 1006.62 1005.77 1005.19 1004.85 1004.86 1004.33 1004.01 1005.21 1006.36 1006.71 1007.39 1008.26 1009.09 1009.83 1010.61
1017.37 1016.37 1015.38 1014.44 1013.68 1013.31 1013.67 1013.80 1014.03 1013.95 1013.13 1011.38 1010.63 1009.97 1009.65 1009.67 1009.36 1009.13 1009.01 1008.52 1008.03 1008.05 1007.92 1007.36 1007.07 1007.31 1007.57 1007.65 1007.57 1007.07 1006.51 1006.30 1005.68 1005.32 1004.83 1004.47 1004.11 1004.78 1005.55 1006.43 1007.22 1007.92 1008.73 1009.53 1009.69
1017.10 1016.25 1015.53 1014.45 1013.74 1014.31 1013.91 1013.95 1013.86 1013.75 1012.46 1011.28 1010.47 1010.06 1009.61 1009.67 1009.59 1009.53 1009.55 1009.17 1008.37 1007.87 1007.82 1007.42 1006.91 1007.03 1006.81 1006.65 1007.11 1006.61 1006.74 1006.83 1006.49 1006.01 1004.57 1004.31 1003.03 1003.49 1004.22 1005.19 1005.95 1006.71 1007.53 1008.05 1008.81
1017.06 1016.37 1015.82 1015.19 1014.83 1014.28 1014.36 1013.95 1013.65 1013.29 1011.94 1011.15 1010.50 1010.35 1010.27 1010.18 1010.42 1009.81 1010.10 1009.54 1008.73 1008.28 1008.19 1006.73 1006.39 1006.39 1006.36 1006.27 1006.73 1006.00 1006.68 1006.60 1006.55 1006.23 1005.57 1004.05 1003.24 1002.01 1003.11 1003.69 1004.32 1005.12 1005.78 1006.64 1007.37
1017.13 1016.41 1015.94 1015.23 1015.02 1013.99 1014.06 1013.55 1013.06 1012.47 1011.34 1011.03 1010.85 1010.83 1010.75 1011.03 1010.98 1010.78 1010.57 1010.51 1010.22 1009.23 1008.40 1007.50 1006.86 1005.96 1005.47 1006.00 1006.35 1006.48 1006.39 1006.40 1006.39 1006.10 1004.58 1003.57 1002.84 1000.81 1001.34 1001.69 1002.60 1003.42 1004.41 1005.24 1005.95
1016.85 1016.16 1015.69 1015.19 1014.54 1013.67 1013.63 1013.08 1012.73 1011.91 1011.62 1011.60 1011.44 1011.55 1011.65 1011.63 1011.51 1011.63 1011.58 1011.27 1011.05 1010.05 1008.95 1008.13 1006.91 1006.16 1005.79 1005.68 1006.02 1006.36 1005.95 1005.79 1005.90 1005.02 1002.17 1002.75 1002.39 1000.89 1000.39 1000.96 1000.94 1001.57 1002.55 1003.67 1004.64
1016.57 1015.73 1015.33 1014.69 1014.28 1013.98 1013.19 1012.93 1012.46 1012.15 1012.07 1012.18 1012.11 1012.24 1012.21 1012.32 1012.23 1012.26 1012.29 1012.13 1012.09 1011.57 1010.37 1008.89 1007.57 1007.09 1007.37 1005.90 1005.33 1005.37 1005.19 1003.97 1003.53 1002.78 1002.11 1002.28 999.77 999.26 1000.16 1000.26 1000.57 1000.69 1001.23 1002.53 1003.56
1016.27 1015.63 1014.97 1014.26 1013.96 1013.83 1013.08 1012.91 1012.65 1012.84 1012.98 1012.70 1012.65 1012.57 1012.75 1012.85 1012.87 1012.65 1012.57 1012.74 1012.97 1012.73 1011.65 1010.57 1009.02 1008.47 1007.82 1007.38 1006.50 1005.03 1004.35 1003.87 1003.45 1003.35 1001.96 1000.22 1000.03 999.54 999.25 999.13 999.20 1000.03 1000.61 1001.07 1001.90
1016.56 1015.93 1014.63 1014.20 1013.92 1013.45 1013.18 1013.65 1013.85 1013.91 1013.79 1013.43 1013.01 1012.90 1012.81 1013.11 1013.20 1013.11 1012.92 1013.07 1013.25 1013.49 1013.35 1012.56 1010.83 1009.33 1008.59 1007.76 1006.51 1005.63 1004.33 1004.27 1003.83 1002.37 1000.99 999.59 998.79 997.30 997.59 998.04 998.19 998.47 999.23 999.93 1000.59
1016.49 1015.34 1014.51 1014.09 1013.67 1013.61 1014.33 1015.22 1015.13 1014.77 1014.57 1014.10 1013.59 1013.42 1013.42 1013.53 1013.53 1013.37 1012.99 1013.40 1013.59 1013.85 1013.84 1013.62 1012.70 1010.00 1009.18 1007.65 1006.26 1006.31 1005.22 1004.22 1003.34 1002.34 1000.49 999.62 997.80 997.21 996.95 996.86 997.11 997.63 998.14 998.55 999.18
1017.11 1015.77 1015.02 1014.15 1014.52 1016.16 1016.42 1016.99 1016.83 1015.61 1015.21 1014.72 1014.31 1013.95 1013.91 1014.01 1013.97 1013.80 1013.27 1013.06 1013.54 1013.98 1014.09 1014.27 1013.68 1011.57 1009.68 1008.46 1008.29 1007.87 1006.71 1005.14 1003.66 1002.41 1001.32 999.91 997.83 996.93 996.71 996.38 996.45 996.66 997.09 997.51 997.99
1018.21 1017.43 1015.87 1014.77 1016.16 1017.35 1018.06 1017.75 1017.39 1016.56 1016.05 1015.53 1015.06 1014.73 1014.82 1014.71 1014.82 1014.26 1013.93 1013.93 1013.88 1013.92 1014.29 1014.77 1014.35 1012.46 1009.51 1008.81 1009.07 1008.63 1007.73 1007.14 1005.95 1003.72 1001.35 999.96 998.71 997.24 997.19 996.95 996.81 996.94 997.07 997.42 997.63
1018.67 1017.82 1017.21 1017.27 1018.36 1018.35 1018.61 1018.38 1017.88 1017.45 1016.89 1016.69 1016.00 1015.68 1015.59 1015.48 1015.40 1015.09 1014.51 1014.47 1014.39 1014.37 1014.79 1015.11 1014.80 1013.40 1011.29 1010.26 1010.82 1010.17 1009.32 1008.59 1007.49 1004.41 1002.25 1000.33 999.08 997.78 997.23 996.85 996.83 997.17 997.39 997.60 997.66
1019.34 1019.55 1019.59 1018.77 1018.82 1019.23 1019.33 1019.15 1018.72 1018.20 1017.54 1017.30 1016.56 1016.50 1016.63 1016.02 1015.70 1015.60 1015.38 1015.01 1014.94 1014.93 1015.25 1015.50 1014.90 1014.28 1013.02 1011.95 1011.30 1010.55 1009.69 1008.95 1007.79 1006.14 1003.57 1001.09 999.87 998.35 997.74 997.59 997.16 997.45 997.98 998.04 998.09
1019.83 1020.02 1019.99 1019.91 1019.85 1019.66 1019.67 1019.46 1019.08 1018.43 1018.35 1017.62 1017.48 1017.27 1017.18 1017.00 1016.59 1015.94 1015.56 1015.27 1014.89 1015.40 1015.53 1015.97 1015.06 1014.59 1013.17 1011.85 1010.83 1009.49 1008.70 1008.22 1007.52 1005.99 1004.90 1003.09 1000.89 999.87 999.28 998.95 998.66 998.78 998.77 998.50 998.44
1020.38 1020.38 1020.37 1020.10 1020.00 1019.93 1019.87 1019.62 1019.07 1018.50 1018.08 1017.94 1017.80 1017.44 1017.12 1016.73 1016.55 1016.35 1016.07 1015.59 1015.32 1015.22 1015.45 1015.82 1015.27 1014.36 1012.46 1011.57 1010.76 1008.18 1006.26 1006.19 1006.24 1005.40 1004.65 1002.83 1001.18 1000.83 999.91 999.87 1000.07 1000.12 1000.01 999.53 999.13
Thickness
5705 5708 5711 5716 5720 5724 5729 5733 5736 5738 5741 5745 5748 5748 5748 5750 5751 5755 5762 5783 5782 5786 5786 5784 5782 5780 5780 5775 5780 5780 5760 5765 5774 5780 5784 5795 5788 5794 5794 5785 5791 5790 5788 5789 5780
5701 5705 5708 5713 5716 5721 5725 5729 5735 5739 5741 5743 5747 5748 5748 5749 5751 5759 5782 5783 5779 5782 5782 5777 5771 5773 5768 5771 5776 5771 5758 5775 5790 5796 5793 5795 5798 5791 5786 5782 5782 5783 5788 5783 5780
5698 5702 5706 5710 5714 5719 5723 5727 5732 5736 5741 5743 5744 5746 5747 5748 5753 5777 5785 5788 5780 5780 5782 5779 5776 5772 5765 5770 5772 5774 5764 5783 5792 5797 5800 5796 5795 5798 5789 5781 5788 5783 5780 5778 5778
5695 5700 5704 5708 5713 5718 5722 5725 5730 5734 5738 5742 5742 5742 5743 5745 5761 5775 5786 5793 5783 5779 5777 5772 5769 5762 5760 5760 5773 5760 5776 5785 5789 5798 5798 5792 5801 5794 5796 5801 5807 5796 5791 5783 5774
5692 5697 5702 5707 5712 5718 5721 5724 5729 5734 5736 5739 5738 5737 5738 5747 5758 5771 5780 5782 5780 5777 5774 5769 5762 5762 5756 5762 5764 5761 5770 5784 5792 5797 5800 5803 5796 5798 5796 5803 5802 5794 5787 5781 5774
5689 5694 5699 5703 5709 5716 5720 5724 5728 5732 5736 5737 5735 5733 5736 5744 5762 5763 5768 5772 5774 5772 5770 5768 5764 5766 5759 5757 5760 5771 5769 5777 5787 5794 5798 5793 5798 5799 5798 5799 5790 5785 5782 5780 5777
5683 5690 5696 5700 5705 5712 5716 5722 5726 5730 5733 5733 5730 5730 5733 5744 5756 5758 5761 5763 5765 5765 5762 5766 5767 5762 5762 5755 5766 5765 5754 5767 5781 5790 5791 5802 5787 5792 5797 5794 5786 5780 5779 5777 5776
5678 5683 5691 5698 5703 5707 5711 5717 5720 5723 5723 5723 5723 5725 5734 5748 5751 5754 5755 5755 5756 5757 5759 5759 5761 5757 5755 5763 5760 5753 5752 5750 5785 5790 5798 5799 5782 5796 5796 5792 5782 5779 5776 5776 5775
5673 5677 5684 5690 5697 5701 5707 5711 5713 5713 5713 5712 5714 5718 5726 5745 5743 5749 5750 5747 5747 5745 5748 5752 5751 5745 5748 5745 5745 5742 5744 5756 5771 5793 5798 5796 5787 5796 5796 5791 5782 5778 5776 5775 5774
5665 5670 5676 5681 5688 5693 5696 5700 5701 5704 5704 5704 5705 5710 5724 5717 5729 5738 5744 5741 5737 5732 5729 5732 5735 5732 5737 5739 5738 5743 5748 5756 5765 5786 5791 5789 5793 5788 5790 5788 5783 5781 5777 5776 5775
5659 5662 5668 5674 5679 5683 5685 5688 5690 5693 5696 5692 5693 5695 5706 5713 5719 5725 5730 5727 5726 5720 5714 5721 5719 5732 5746 5741 5744 5742 5746 5753 5768 5786 5783 5791 5792 5788 5786 5785 5782 5780 5778 5778 5778
5652 5652 5657 5663 5668 5671 5669 5669 5659 5656 5667 5677 5676 5680 5689 5693 5693 5706 5719 5709 5708 5705 5706 5702 5715 5739 5732 5725 5725 5731 5733 5745 5764 5774 5770 5782 5788 5791 5787 5790 5792 5785 5782 5779 5778
5644 5647 5650 5654 5656 5656 5649 5645 5641 5639 5644 5660 5664 5667 5672 5676 5672 5677 5688 5692 5694 5691 5697 5703 5719 5723 5717 5715 5714 5724 5729 5735 5745 5755 5765 5771 5769 5775 5788 5788 5790 5790 5786 5779 5783
5636 5637 5638 5643 5647 5635 5636 5631 5631 5629 5635 5642 5649 5652 5657 5658 5654 5665 5667 5671 5680 5682 5686 5691 5715 5708 5710 5713 5715 5710 5732 5728 5729 5728 5731 5766 5748 5772 5786 5782 5787 5791 5790 5790 5786
5625 5625 5625 5626 5626 5628 5623 5624 5626 5628 5622 5632 5636 5647 5643 5640 5638 5647 5651 5655 5660 5665 5668 5686 5699 5700 5697 5711 5711 5721 5724 5722 5723 5716 5722 5742 5741 5777 5783 5777 5787 5797 5802 5800 5797
5614 5616 5615 5616 5614 5620 5618 5622 5625 5621 5613 5620 5624 5620 5623 5622 5624 5630 5632 5638 5639 5645 5654 5669 5690 5699 5706 5708 5708 5717 5712 5712 5712 5710 5690 5730 5736 5766 5774 5793 5798 5805 5806 5806 5805
5606 5608 5608 5608 5611 5615 5614 5620 5612 5610 5616 5606 5606 5608 5604 5606 5610 5611 5609 5611 5616 5629 5635 5645 5665 5686 5695 5691 5699 5698 5694 5678 5673 5677 5702 5744 5722 5751 5792 5799 5812 5811 5814 5814 5812
5599 5603 5604 5605 5606 5606 5612 5608 5595 5599 5594 5597 5595 5591 5589 5590 5593 5593 5594 5595 5598 5604 5612 5628 5644 5651 5655 5680 5686 5691 5694 5690 5674 5690 5712 5736 5720 5757 5792 5806 5810 5816 5819 5815 5811
5596 5598 5601 5602 5600 5599 5603 5591 5590 5584 5580 5579 5579 5573 5572 5574 5575 5578 5579 5578 5578 5584 5597 5604 5621 5631 5641 5651 5667 5687 5679 5720 5697 5697 5705 5729 5741 5775 5793 5796 5808 5806 5810 5818 5821
5589 5589 5597 5594 5593 5595 5592 5576 5572 5569 5565 5565 5562 5565 5560 5558 5559 5561 5564 5567 5565 5566 5570 5576 5595 5613 5623 5640 5659 5671 5703 5668 5680 5672 5680 5711 5732 5760 5783 5792 5805 5810 5814 5820 5827
5584 5596 5590 5589 5588 5586 5574 5557 5554 5554 5551 5548 5548 5547 5545 5542 5543 5544 5550 5550 5551 5551 5555 5558 5567 5603 5610 5626 5648 5647 5660 5677 5694 5695 5695 5693 5723 5786 5790 5805 5808 5813 5821 5827 5831
5569 5588 5580 5581 5574 5548 5548 5530 5528 5537 5535 5532 5532 5533 5528 5526 5523 5526 5535 5539 5541 5539 5539 5541 5546 5568 5592 5615 5620 5620 5636 5660 5666 5680 5698 5702 5722 5791 5797 5808 5816 5822 5829 5833 5838
5556 5556 5567 5573 5555 5537 5519 5519 5517 5520 5517 5515 5512 5513 5510 5508 5502 5512 5515 5519 5523 5526 5524 5524 5527 5548 5591 5605 5601 5606 5620 5631 5645 5674 5679 5684 5707 5782 5788 5792 5805 5809 5821 5826 5833
5552 5565 5557 5547 5528 5528 5512 5512 5508 5504 5500 5493 5495 5493 5490 5489 5490 5488 5498 5500 5505 5510 5509 5509 5511 5531 5560 5570 5562 5570 5586 5605 5613 5648 5678 5689 5715 5759 5775 5785 5798 5804 5811 5817 5826
5538 5533 5523 5537 5529 5513 5502 5495 5488 5480 5484 5477 5478 5473 5464 5476 5480 5473 5480 5485 5490 5495 5494 5494 5502 5508 5527 5543 5548 5558 5572 5587 5600 5627 5646 5695 5709 5751 5768 5778 5792 5800 5801 5807 5815
5536 5528 5521 5518 5513 5508 5496 5487 5476 5475 5459 5465 5457 5453 5448 5445 5452 5466 5470 5476 5481 5478 5480 5476 5492 5495 5511 5534 5545 5557 5574 5584 5600 5623 5629 5659 5693 5740 5754 5762 5772 5776 5785 5797 5804
5522 5518 5514 5517 5509 5500 5490 5475 5467 5468 5467 5462 5453 5444 5440 5447 5453 5453 5455 5464 5469 5472 5472 5467 5479 5489 5508 5522 5526 5550 5587 5601 5610 5629 5641 5661 5707 5723 5741 5744 5749 5756 5767 5780 5794